User: anonymous   Login
Location: Unspecified
(0.0000°N, 0.0000°E)
Time: 12:58:43
(UTC+00:00)
Language:

FREEDOM - Orbit

View from above orbital plane
View from above orbital plane
View from above satellite
View from above satellite

Ground track
Ground track

The orbit data is extracted from the following two-line orbital elements,

1 41932U 98067KU  18350.75023110  .00255508  40945-4  34716-3 0  9990
2 41932  51.6215 106.8320 0004744 315.0651  44.9977 16.05804494109732
Epoch (UTC): 16 December 2018 18:00:19
Eccentricity: 0.0004744
inclination: 51.6215°
perigee height: 255 km
apogee height: 261 km
right ascension of ascending node: 106.8320°
argument of perigee: 315.0651°
revolutions per day: 16.05804494
mean anomaly at epoch: 44.9977°
orbit number at epoch: 10973

The dashed part of the orbit path shows where the satellite is in the earth's shadow,  

DLR